Bishopton, United Kingdom

2:23 AM GMT on January 20, 2017 (GMT +0000)
Glasgow

Weather History for EGPF - November, 2012

Change the Weather History Date:

Wednesday, November 14, 2012

  Actual Average Record
Temperature  
Mean Temperature 42 °F -  
Max Temperature 48 °F 45 °F 57 °F (2008)
Min Temperature 37 °F 35 °F 30 °F (2010)
Degree Days  
Heating Degree Days 22    
Moisture  
Dew Point 45 °F    
Average Humidity 96    
Maximum Humidity 100    
Minimum Humidity 93    
Precipitation  
Precipitation 0.00 in - - ()
Sea Level Pressure  
Sea Level Pressure 30.17 in    
Wind  
Wind Speed 3 mph ()    
Max Wind Speed 7 mph    
Max Gust Speed -    
Visibility 4.3 miles    
Events Fog , Rain    
Averages and records for this station are not official NWS values.
T = Trace of Precipitation, MM = Missing Value Source: Averaged Metar Reports

Daily Weather History Graph

Daily Weather History Graph

Search for Another Location

Airport or City:

Trip Planner

Search our weather history database for the weather conditions in past years. The results will help you decide how hot, cold, wet, or windy it might be!

Date:

Astronomy

Nov. 14, 2012 Rise Set
Actual Time 7:52 AM GMT 4:11 PM GMT
Civil Twilight 7:10 AM GMT 4:53 PM GMT
Nautical Twilight 6:24 AM GMT 5:38 PM GMT
Astronomical Twilight 5:41 AM GMT 6:22 PM GMT
Moon 8:35 AM GMT (11/14) 4:34 PM GMT (11/14)
Length of Visible Light 9h 43m
Length of Day
8h 19m
New Moon, 1% of the Moon is Illuminated
Nov 14
New Moon
Nov 20
First Quarter
Nov 28
Full
Dec 6
Last Quarter
Dec 13
New

Hourly Weather History & Observations

Time (GMT) Temp. Windchill Dew Point Humidity Pressure Visibility Wind Dir Wind Speed Gust Speed Precip Events Conditions
12:20 AM 48.2 °F - 46.4 °F 93% 30.09 in 6.2 mi NNE 2.3 mph - N/A Rain Light Rain
12:50 AM 46.4 °F 45.2 °F 46.4 °F 100% 30.09 in 5.6 mi NNE 3.5 mph - N/A   Scattered Clouds
1:20 AM 48.2 °F - 46.4 °F 93% 30.09 in 3.7 mi Calm Calm - N/A   Mostly Cloudy
1:50 AM 48.2 °F - 46.4 °F 93% 30.09 in 3.7 mi Calm Calm - N/A Rain Light Rain
2:20 AM 48.2 °F - 46.4 °F 93% 30.09 in 3.1 mi North 2.3 mph - N/A Rain Light Rain
2:50 AM 48.2 °F - 46.4 °F 93% 30.09 in - North 2.3 mph - N/A   Drizzle
3:20 AM 48.2 °F - 46.4 °F 93% 30.09 in 1.9 mi Calm Calm - N/A   Drizzle
3:50 AM 48.2 °F - 46.4 °F 93% 30.09 in 1.5 mi Variable 2.3 mph - N/A Rain Light Rain
4:20 AM 48.2 °F - 46.4 °F 93% 30.12 in 2.5 mi WNW 2.3 mph - N/A Rain Light Rain
4:50 AM 48.2 °F - 46.4 °F 93% 30.12 in 2.5 mi Calm Calm - N/A Rain Light Rain
5:20 AM 46.4 °F - 46.4 °F 100% 30.12 in 2.5 mi Calm Calm - N/A Rain Light Rain
7:50 AM 46.4 °F 45.2 °F 46.4 °F 100% 30.15 in 1.2 mi WNW 3.5 mph - N/A Rain Light Rain
8:20 AM 48.2 °F - 46.4 °F 93% 30.15 in - Variable 2.3 mph - N/A   Light Drizzle
8:50 AM 48.2 °F - 46.4 °F 93% 30.18 in 3.1 mi West 4.6 mph - N/A Rain Light Rain
9:20 AM 48.2 °F - 46.4 °F 93% 30.18 in - West 4.6 mph - N/A Rain Light Rain
9:50 AM 48.2 °F - 46.4 °F 93% 30.18 in - West 4.6 mph - N/A Rain Light Rain
10:20 AM 48.2 °F - 46.4 °F 93% 30.18 in - SW 4.6 mph - N/A Rain Light Rain
10:50 AM 48.2 °F - 48.2 °F 100% 30.18 in - SW 4.6 mph - N/A Rain Light Rain
11:20 AM 48.2 °F - 46.4 °F 93% 30.18 in - SW 4.6 mph - N/A Rain Light Rain
11:50 AM 48.2 °F - 48.2 °F 100% 30.18 in - West 2.3 mph - N/A Rain Light Rain
12:20 PM 48.2 °F - 48.2 °F 100% 30.18 in 3.1 mi SSW 4.6 mph - N/A Rain Light Rain
12:50 PM 48.2 °F - 48.2 °F 100% 30.18 in 6.2 mi NW 3.5 mph - N/A Rain Light Rain
1:20 PM 48.2 °F - 48.2 °F 100% 30.18 in 6.2 mi West 2.3 mph - N/A Rain Light Rain
1:50 PM 48.2 °F - 48.2 °F 100% 30.18 in 6.2 mi Variable 2.3 mph - N/A Rain Light Rain
2:20 PM 48.2 °F - 48.2 °F 100% 30.18 in 6.2 mi Variable 3.5 mph - N/A Rain Light Rain
2:50 PM 48.2 °F - 48.2 °F 100% 30.18 in 6.2 mi West 3.5 mph - N/A Rain Light Rain
3:20 PM 48.2 °F - 48.2 °F 100% 30.18 in 6.2 mi SW 3.5 mph - N/A   Overcast
3:50 PM 48.2 °F - 46.4 °F 93% 30.18 in 6.2 mi SW 5.8 mph - N/A   Overcast
4:20 PM 48.2 °F - 46.4 °F 93% 30.18 in 6.2 mi South 5.8 mph - N/A   Mostly Cloudy
4:50 PM 48.2 °F - 46.4 °F 93% 30.18 in 6.2 mi SW 4.6 mph - N/A   Mostly Cloudy
5:20 PM 48.2 °F - 46.4 °F 93% 30.21 in 6.2 mi West 3.5 mph - N/A Rain Light Rain
5:50 PM 48.2 °F - 46.4 °F 93% 30.21 in 6.2 mi WSW 5.8 mph - N/A Rain Light Rain
6:20 PM 46.4 °F 42.9 °F 44.6 °F 93% 30.21 in 6.2 mi WSW 6.9 mph - N/A   Partly Cloudy
6:50 PM 44.6 °F 42.2 °F 44.6 °F 100% 30.21 in 5.0 mi WSW 4.6 mph - N/A   Partly Cloudy
7:20 PM 44.6 °F 42.2 °F 42.8 °F 93% 30.21 in 4.3 mi West 4.6 mph - N/A   Partly Cloudy
7:50 PM 42.8 °F 41.1 °F 41.0 °F 93% 30.21 in 5.0 mi Variable 3.5 mph - N/A   Partly Cloudy
8:20 PM 44.6 °F 42.2 °F 42.8 °F 93% 30.21 in 5.0 mi South 4.6 mph - N/A Fog Fog
8:50 PM 41.0 °F - 39.2 °F 93% 30.21 in 4.3 mi Calm Calm - N/A Fog Patches of Fog
9:20 PM 42.8 °F - 42.8 °F 100% 30.24 in 3.7 mi Variable 2.3 mph - N/A Fog Patches of Fog
9:50 PM 42.8 °F 41.1 °F 42.8 °F 100% 30.24 in 5.0 mi SSE 3.5 mph - N/A Fog Fog
10:20 PM 39.2 °F - 39.2 °F 100% 30.24 in 1.9 mi Variable 2.3 mph - N/A Fog Patches of Fog
10:50 PM 37.4 °F 34.9 °F 37.4 °F 100% 30.24 in 1.9 mi NNE 3.5 mph - N/A Fog Patches of Fog
11:20 PM 37.4 °F - 37.4 °F 100% 30.24 in 1.9 mi ESE 2.3 mph - N/A Fog Patches of Fog
11:50 PM 37.4 °F - 35.6 °F 93% 30.24 in 2.5 mi Calm Calm - N/A Fog Patches of Fog